Terminal Aerodrome Forecast
Issued by NWS

Home | Current Version | Previous Version | Graphics & Text | Print | Product List | Glossary Off
Versions: 1 2 3 4 5 6 7 8 9 10 11 12 13 14 15 16 17 18 19 20 21 22 23 24 25 26 27 28 29 30 31 32 33 34 35 36 37 38 39 40 41 42 43 44 45 46 47 48 49 50

000
FTUS43 KDDC 300230 AAA
TAFGCK
TAF AMD
KGCK 300230Z 3003/3024 36030G38KT 6SM -SN OVC007
     FM300600 36028G36KT 1/2SM SN OVC003
     FM301400 34031G43KT 1SM -SN OVC008
     FM301700 33032G43KT 3SM -SN BLSN OVC008
     FM301800 33033G43KT 4SM -SN BLSN OVC008
     FM302000 33039KT 5SM -RASN OVC010=

USA.gov is the U.S. government's official web portal to all federal, state and local government web resources and services.